This demonstration page uses our WeatherBlox Daily Observations layout. Learn more.

Left ArrowRight Arrow

38.20091, -84.87328

Hourly Observations for January 31, 2015

Temp ( °F °C ) Dew Point ( °F °C ) Humidity (%) Winds ( mph kmh ) Pressure ( in mb ) Visibility ( mi km ) Precip ( " mm )
12:53 am 00:53 Clear 19 -7.2 14 -10 81 81 Calm 30.44 1031 10 16 0.00 0.00
1:53 am 01:53 Clear 17 -8.3 13 -10.6 84 84 Calm 30.44 1031 10 16 0.00 0.00
2:53 am 02:53 Clear 16 -8.9 12 -11.1 84 84 Calm 30.43 1031 10 16 0.00 0.00
3:53 am 03:53 Clear 18 -7.8 12 -11.1 77 77 Calm 30.42 1030 10 16 0.00 0.00
4:53 am 04:53 Clear 16 -8.9 11 -11.7 80 80 Calm 30.40 1029 10 16 0.00 0.00
5:53 am 05:53 Clear 15 -9.4 11 -11.7 84 84 Calm 30.39 1029 10 16 0.00 0.00
6:53 am 06:53 Clear 16 -8.9 11 -11.7 80 80 Calm 30.39 1029 10 16 0.00 0.00
7:53 am 07:53 Sunny 16 -8.9 12 -11.1 84 84 Calm 30.40 1030 10 16 0.00 0.00
8:53 am 08:53 Sunny 20 -6.7 16 -8.9 85 85 Calm 30.41 1030 10 16 0.00 0.00
9:53 am 09:53 Sunny 27 -2.8 20 -6.7 75 75 Calm 30.42 1030 10 16 0.00 0.00
10:53 am 10:53 Sunny 33 0.6 20 -6.7 58 58 SSW 7 11 30.42 1030 10 16 0.00 0.00
11:53 am 11:53 Sunny 36 2.2 18 -7.8 48 48 SW 9 15 30.40 1029 10 16 0.00 0.00
12:53 pm 12:53 Sunny 38 3.3 18 -7.8 44 44 SSW 6 9 30.37 1029 10 16 0.00 0.00
1:53 pm 13:53 Sunny 40 4.4 16 -8.9 38 38 W 8 13 30.34 1027 10 16 0.00 0.00
2:53 pm 14:53 Sunny 41 5 15 -9.4 35 35 WSW 7 11 30.32 1027 10 16 0.00 0.00
3:53 pm 15:53 Sunny 41 5 16 -8.9 36 36 SW 7 11 30.30 1026 10 16 0.00 0.00
4:53 pm 16:53 Mostly Sunny 40 4.4 18 -7.8 41 41 SW 8 13 30.30 1026 10 16 0.00 0.00
5:53 pm 17:53 Mostly Cloudy 38 3.3 19 -7.2 46 46 SW 8 13 30.31 1027 10 16 0.00 0.00
6:53 pm 18:53 Cloudy 37 2.8 19 -7.2 48 48 Calm 30.30 1026 10 16 0.00 0.00
7:53 pm 19:53 Cloudy 35 1.7 20 -6.7 54 54 Calm 30.31 1026 10 16 0.00 0.00
8:53 pm 20:53 Cloudy 35 1.7 22 -5.6 59 59 Calm 30.28 1026 10 16 0.00 0.00
9:53 pm 21:53 Cloudy 36 2.2 21 -6.1 55 55 Calm 30.26 1025 10 16 0.00 0.00
10:53 pm 22:53 Cloudy 35 1.7 20 -6.7 54 54 Calm 30.25 1024 10 16 0.00 0.00
11:53 pm 23:53 Cloudy 34 1.1 21 -6.1 59 59 SSE 5 7 30.24 1024 10 16 0.00 0.00

Powered by AerisWeather